Location: Hradec Kralove
(50.2170°N, 15.8330°E)
Time: 09:44:57
(UTC+01:00)

X-37B - Pass Details

Date: 12 December 2022
Orbit: 277 x 277 km, 45.0° (Epoch: 01 November)

Event Time Altitude Azimuth Distance (km) Brightness Sun altitude
Rises 17:00:05 0° 235° (SW) 1,910 6.1 -10.0°
Reaches altitude 10° 17:02:18 10° 216° (SW) 1,099 3.9 -10.3°
Maximum altitude 17:04:08 19° 167° (SSE) 759 2.2 -10.6°
Enters shadow 17:05:57 10° 119° (ESE) 1,099 2.5 -10.8°
